This is the latest recevied weather packets stored in our database for station/object KG2V. If no packets are shown the sender has not sent any weather packets the latest 10 day(s).
| Time | Temp. | Humidity | Pressure | Rain* | Wind** | Luminosity | Snow |
|---|---|---|---|---|---|---|---|
| 1778290678 | 6.11° C | 81% | 1006.8 hPa | 0 mm | - | 0 W/m² | - |
| 1778290374 | 6.67° C | 80% | 1006.8 hPa | 0 mm | - | 0 W/m² | - |
| 1778290071 | 6.67° C | 79% | 1006.8 hPa | 0 mm | - | 0 W/m² | - |
| 1778289768 | 6.67° C | 77% | 1006.9 hPa | 0 mm | - | 0 W/m² | - |
| 1778289465 | 6.67° C | 76% | 1006.9 hPa | 0 mm | - | 0 W/m² | - |
| 1778289162 | 7.22° C | 75% | 1006.7 hPa | 0 mm | - | 0 W/m² | - |
| 1778288860 | 6.67° C | 75% | 1006.6 hPa | 0 mm | - | 0 W/m² | - |
| 1778288557 | 7.22° C | 74% | 1006.6 hPa | 0 mm | - | 0 W/m² | - |
| 1778288254 | 7.78° C | 74% | 1006.5 hPa | 0 mm | - | 0 W/m² | - |
| 1778287952 | 7.78° C | 73% | 1006.3 hPa | 0 mm | - | 0 W/m² | - |
| 1778287651 | 7.78° C | 71% | 1006.1 hPa | 0 mm | - | 0 W/m² | - |
| 1778287349 | 8.33° C | 70% | 1006 hPa | 0 mm | - | 0 W/m² | - |
| 1778287047 | 8.33° C | 70% | 1006.2 hPa | 0 mm | - | 0 W/m² | - |
| 1778286744 | 8.33° C | 68% | 1006 hPa | 0 mm | - | 0 W/m² | - |
| 1778286441 | 8.89° C | 67% | 1006 hPa | 0 mm | - | 1 W/m² | - |
| 1778286139 | 9.44° C | 67% | 1006.2 hPa | 0 mm | - | 2 W/m² | - |
| 1778285837 | 9.44° C | 65% | 1006.1 hPa | 0 mm | - | 3 W/m² | - |
| 1778285532 | 10° C | 63% | 1006 hPa | 0 mm | - | 4 W/m² | - |
| 1778285230 | 10° C | 61% | 1006.1 hPa | 0 mm | - | 7 W/m² | - |
| 1778284927 | 10.56° C | 61% | 1005.9 hPa | 0 mm | - | 9 W/m² | - |
| 1778284624 | 10.56° C | 59% | 1005.9 hPa | 0 mm | - | 12 W/m² | - |
| 1778284321 | 10.56° C | 56% | 1005.9 hPa | 0 mm | - | 14 W/m² | - |
| 1778284018 | 11.11° C | 55% | 1005.9 hPa | 0 mm | - | 16 W/m² | - |
| 1778283715 | 11.67° C | 55% | 1006.1 hPa | 0 mm | - | 18 W/m² | - |
| 1778283414 | 11.67° C | 53% | 1006 hPa | 0 mm | - | 22 W/m² | - |
* Rain latest hour (hover to see other rain measurements)
** Current wind speed in m/s (hover to see current wind gust speed)